NOAA-14
1 23455U 94089A   05117.89196315  .00000250  00000-0  15724-3 0 05787
2 23455 099.0940 165.3904 0010039 139.3499 220.8424 14.13558771532397
SICH-1
1 23657U 95046A   05117.77046756  .00000305  00000-0  36074-4 0 04181
2 23657 082.5252 085.2343 0022550 290.5652 069.3158 14.81139843520491
NOAA-15
1 25338U 98030A   05117.91908338  .00000064  00000-0  45733-4 0 00207
2 25338 098.5144 127.7831 0011224 141.2067 218.9918 14.24503439361591
RESURS
1 25394U 98043A   05117.97480323  .00000014  00000-0  24644-4 0 00773
2 25394 098.5405 188.6079 0000681 343.6244 016.4914 14.24061520353300
FENGYUN1
1 25730U 99025A   05117.81679079 -.00000285  00000-0 -13333-3 0 04025
2 25730 098.6068 121.6158 0013658 243.7466 116.2297 14.11791659307401
OKEAN-0
1 25860U 99039A   05117.77082645  .00000093  00000-0  21614-4 0 04214
2 25860 097.7615 145.8734 0001660 069.2672 290.8711 14.73236016310583
NOAA-16
1 26536U 00055A   05117.91616816  .00000104  00000-0  81079-4 0 03295
2 26536 099.0107 076.0824 0010198 205.3212 154.7430 14.12232330236962
NOAA-17
1 27453U 02032A   05117.89741945  .00000047  00000-0  39899-4 0 03547
2 27453 098.6621 192.1676 0011782 196.1202 163.9622 14.23655589147680
HUBBLE
1 20580U 90037B   05117.68108649  .00000645  00000-0  37998-4 0  3258
2 20580 028.4674 237.8599 0003804 099.4576 260.6442 14.99685003622656
UARS
1 21701U 91063B   05118.80504603 -.00000016  00000-0  17424-4 0  4301
2 21701 056.9822 030.2291 0004160 105.7125 254.4327 15.03808212746064
PO-34
1 25520U 98064B   05118.81235115  .00000797  00000-0  30297-4 0  1666
2 25520 028.4594 282.3755 0005619 051.7039 308.4042 15.16229550359088
ISS
1 25544U 98067A   05118.91304830  .00007037  00000-0  58153-4 0  3518
2 25544 051.6444 153.1943 0007880 061.4358 359.5788 15.71592636367930
WO-39
1 26061U 00004A   03303.41062303  .00002252  00000-0  75720-3 0  9734
2 26061 100.1904 047.3011 0034615 281.6926 078.0378 14.38082544197011
OO-38
1 26063U 00004C   05117.60212414 -.00000005  00000-0  18638-4 0 03399
2 26063 100.2212 328.3747 0036804 197.1517 162.8430 14.35713492275044
NO-45
1 26932U 01043D   05117.91213463 -.00000314  00000-0 -90347-4 0 00193
2 26932 067.0601 356.9335 0008466 255.1847 104.8294 14.29479331186617
